Location: Namasale
(1.5000°N, 32.6167°E)
Time: 19:32:08
(UTC+00:00)

Vanguard 1 Rocket - Pass Details

Date: 25 April 2021
Orbit: 652 x 4224 km, 34.3° (Epoch: 10 May)

Event Time Altitude Azimuth Distance (km) Brightness Sun altitude
Rises 08:59:28 0° 270° (W) 6,523 11.6 73.2°
Reaches altitude 10° 09:07:16 10° 290° (WNW) 4,594 11.1 74.5°
Maximum altitude 09:12:51 14° 319° (NW) 3,545 10.7 75.4°
Drops below altitude 10° 09:17:08 10° 350° (N) 3,330 10.6 76.0°
Sets 09:21:10 0° 16° (NNE) 3,792 10.8 76.5°
